Regional Weather Roundup
Issued by NWS

Home | Current Version | Previous Version | Text Only | Print | Product List | Glossary Off
Versions: 1 2 3 4 5 6 7 8 9 10 11 12 13 14 15 16 17 18 19 20 21 22 23 24 25 26 27 28 29 30 31 32 33 34 35 36 37 38 39 40 41 42 43 44 45 46 47 48 49 50

000
ASUS43 KDMX 271201
RWRIA

WEATHER ROUNDUP FOR IOWA
NATIONAL WEATHER SERVICE DES MOINES IA
700 AM CDT THU JUL 27 2017

NOTE: "FAIR" INDICATES FEW OR NO CLOUDS BELOW 12,000 FEET WITH NO
SIGNIFICANT WEATHER AND/OR OBSTRUCTIONS TO VISIBILITY.

* - THESE STATIONS ARE NOT NWS STATIONS...THUS NOT UNDER NWS
QUALITY CONTROL.  THEY ALSO DO NOT REPORT WEATHER SUCH
AS PRECIPITATION OR FOG.

IAZ001>003-012>014-020>022-031>034-043>046-271300-
   NORTHWEST IOWA

CITY           SKY/WX    TMP DP  RH WIND       PRES   REMARKS
CARROLL *      CLEAR     64  63  94 N5        30.06R
CHEROKEE *     CLEAR     61  61 100 CALM      30.09R
DENISON *      CLEAR     64  63  94 N6        30.08S
ORANGE CITY *  CLEAR     64  61  88 NE5       30.10R
SHELDON *      CLEAR     57  57 100 CALM      30.08S
SIOUX CITY     CLEAR     63  63 100 NW6       30.09R
6HR MIN TEMP:  61; 6HR MAX TEMP:  71;

SPENCER        CLEAR     62  60  93 N6        30.08R
6HR MIN TEMP:  60; 6HR MAX TEMP:  63;

STORM LAKE *   CLEAR     64  61  88 N6        30.08R
$$

IAZ055>058-069>071-079>083-090>094-271300-
   SOUTHWEST IOWA

CITY           SKY/WX    TMP DP  RH WIND       PRES   REMARKS
ATLANTIC *     CLEAR     66  64  94 CALM      30.04R
AUDUBON *      CLEAR     66  63  88 N8        30.06S
CLARINDA *     PTCLDY    68  68 100 CALM      30.03S FOG
COUNCIL BLFS * CLEAR     66  66 100 N7        30.05R
CRESTON *      PTCLDY    70  70 100 N8        30.02F FOG
HARLAN  *      CLEAR     64  64 100 N7        30.08S
LAMONI         CLOUDY    71  70  96 N7        30.00S
6HR MIN TEMP:  71; 6HR MAX TEMP:  75; 6HR PCP: TRACE;

RED OAK *      CLEAR     68  66  94 N7        30.02S
SHENANDOAH *   CLEAR     70  68  94 N3        30.02S
$$

IAZ047>049-059>061-072>074-084-271300-
   CENTRAL IOWA

CITY           SKY/WX    TMP DP  RH WIND       PRES   REMARKS
AMES           CLOUDY    68  67  96 N8        30.02R
6HR MIN TEMP:  67; 6HR MAX TEMP:  71;

ANKENY *       CLEAR     70  68  94 N7        30.01S
BOONE *        CLEAR     66  64  94 N9        30.03R
CHARITON *     CLOUDY    72  70  94 N6        29.99S
DES MOINES     PTCLDY    72  69  90 N8        29.99R
6HR MIN TEMP:  71; 6HR MAX TEMP:  73;

GRINNELL*      CLEAR     70  68  94 N6        30.00S
KNOXVILLE *    CLOUDY    72  68  88 N3        29.98R
MARSHALLTOWN   CLEAR     69  67  93 N8        30.00R
6HR MIN TEMP:  68; 6HR MAX TEMP:  72;

NEWTON *       CLEAR     70  68  94 N8        30.00R
PELLA *        CLEAR     70  68  93 CALM      30.00R
PERRY *          N/A     66  65  98 NW5       30.04R
$$

IAZ004>006-015-016-023>025-035-036-271300-
   NORTH CENTRAL IOWA

CITY           SKY/WX    TMP DP  RH WIND       PRES   REMARKS
ALGONA *       CLEAR     63  63 100 CALM      30.07R
CLARION *      CLEAR     63  63 100 N5        30.05R
ESTHERVILLE    CLEAR     61  61 100 N5        30.07R
6HR MIN TEMP:  59; 6HR MAX TEMP:  63;

FORT DODGE *   CLEAR     63  61  94 N6        30.06R
MASON CITY     CLEAR     62  60  93 N5        30.06R
6HR MIN TEMP:  59; 6HR MAX TEMP:  65;

FOREST CITY *    N/A     63  63 100 N6        30.05S
WEBSTER CITY * CLEAR     63  61  94 CALM      30.03R
IOWA FALLS *     N/A     66  62  87 N3        30.04R
$$

IAZ007>011-017>019-026>030-037>042-050>054-066-271300-
   NORTHEAST IOWA

CITY           SKY/WX    TMP DP  RH WIND       PRES   REMARKS
CHARLES CITY * CLEAR     64  64 100 VRB5      30.04R
DECORAH *      SUNNY     66  64  94 N5        30.02R
DUBUQUE        SUNNY     70  70 100 NE12      29.99R
MONTICELLO *   SUNNY     72  70  94 CALM      29.98R
OELWEIN *      SUNNY     68  68 100 N8        30.02R
WATERLOO       PTCLDY    68  64  87 N9        30.00R
6HR MIN TEMP:  67; 6HR MAX TEMP:  71;

$$

IAZ064-065-067-068-078-271300-
   EAST CENTRAL IOWA

CITY           SKY/WX    TMP DP  RH WIND       PRES   REMARKS
DAVENPORT      CLOUDY    70  69  97 NE9       29.97R
6HR MIN TEMP:  70; 6HR MAX TEMP:  72;

IOWA CITY      CLOUDY    74  70  87 N7        29.97R
6HR MIN TEMP:  74; 6HR MAX TEMP:  77;

MUSCATINE *    CLOUDY    73  72  94 N5        29.96R
QUAD CITIES    CLOUDY    72  68  87 N8        29.94R
6HR MIN TEMP:  72; 6HR MAX TEMP:  74;

$$

IAZ062-063-075>077-085>089-095>099-271300-
   SOUTHEAST IOWA

CITY           SKY/WX    TMP DP  RH WIND       PRES   REMARKS
BURLINGTON     CLOUDY    75  74  96 N3        29.95R FOG
6HR MIN TEMP:  74; 6HR MAX TEMP:  75;

FAIRFIELD *    CLOUDY    72  70  94 N5        29.97R
FORT MADISON * CLOUDY    73  73 100 CALM      29.96R FOG
KEOKUK *       CLOUDY    73  73 100 CALM      29.94S FOG
OSKALOOSA *    CLOUDY    70  69  96 N3        29.99R
OTTUMWA        CLOUDY    72  70  93 N3        29.96S
6HR MIN TEMP:  70; 6HR MAX TEMP:  75;

WASHINGTON *   CLOUDY    72  72 100 N5        29.98R
$$

ABBREVIATIONS USED IN REMARKS
   TC - TEMPERATURES IN CELSIUS
  WCI - WIND CHILL INDEX
   HX - HEAT INDEX
  VSB - VISIBILITY
$$





USA.gov is the U.S. government's official web portal to all federal, state and local government web resources and services.